Powrót do katalogu

STARLINK-5955

AktywnyŁącznośćSSO
NORAD 56342·PAYLOAD·🇺🇸 United States

Wystrzelony Apr 27, 2023 z Vandenberg Space Force Base

Loading…

Następne Przeloty (najbliższe 24 godziny)

TLE

ŚwieżeSource: CelesTrak SupGP

Epoka: Sep 15, 2026, 01:31 UTC

1 56342C 23058AB  26258.06368056 -.00048410  00000+0 -15023-2 0  2584
2 56342  97.2845 254.9197 0001494  98.6573 255.6509 15.33472394    14

Śledź STARLINK-5955 w czasie rzeczywistym z AllMySat

Download on the App Store